When you browse on this site, cookies collect data to enhance your experience and personalize the content and advertising you see.
Visit our Privacy Policy to learn more. By continuing to use the site, you agree to this use of cookies and data.
  • Em Portugal
  • Lista de países
  • Para 7 dias
  • Temperatura da água
  • Mapas de satélite
  • Mapa do tempo
  • Widgets de tempo
  • user-avatar
    Iniciar Sessão

    Previsão horária em Taush

    Hoje, 26 Abril, Sexta-feira

    Tempo Temperatura Precipitação Vento Pressão Humidade
    00:00 +1°C° 0 mm 2 m/s 751 mmHg 80%
    01:00 +1°C° 0 mm 2 m/s 751 mmHg 82%
    02:00 +1°C° 0 mm 1 m/s 751 mmHg 82%
    03:00 +1°C° 0 mm 1 m/s 751 mmHg 83%
    04:00 +1°C° 0 mm 1 m/s 751 mmHg 84%
    05:00 +1°C° 0 mm 1 m/s 751 mmHg 78%
    06:00 +2°C° 0 mm 1 m/s 751 mmHg 72%
    07:00 +3°C° 0 mm 1 m/s 751 mmHg 66%
    08:00 +5°C° 0 mm 1 m/s 751 mmHg 58%
    09:00 +5°C° 0 mm 2 m/s 751 mmHg 51%
    10:00 +7°C° 0 mm 2 m/s 751 mmHg 43%
    11:00 +7°C° 0 mm 3 m/s 750 mmHg 43%
    12:00 +8°C° 0 mm 3 m/s 750 mmHg 43%
    13:00 +8°C° 0 mm 4 m/s 750 mmHg 43%
    14:00 +8°C° 0.3 mm 5 m/s 750 mmHg 45%
    15:00 +8°C° 0.3 mm 5 m/s 749 mmHg 48%
    16:00 +8°C° 0.3 mm 6 m/s 749 mmHg 50%
    17:00 +7°C° 0.1 mm 5 m/s 749 mmHg 54%
    18:00 +6°C° 0.1 mm 4 m/s 749 mmHg 57%
    19:00 +7°C° 0.1 mm 3 m/s 749 mmHg 60%
    20:00 +5°C° 0 mm 3 m/s 749 mmHg 63%
    21:00 +5°C° 0 mm 2 m/s 750 mmHg 66%
    22:00 +4°C° 0 mm 2 m/s 750 mmHg 70%
    23:00 +3°C° 0 mm 2 m/s 750 mmHg 72%

    Amanhã, 27 Abril, Sábado

    Tempo Temperatura Precipitação Vento Pressão Humidade
    00:00 +3°C° 0 mm 1 m/s 750 mmHg 75%
    01:00 +3°C° 0 mm 1 m/s 750 mmHg 77%
    02:00 +2°C° 0 mm 1 m/s 750 mmHg 78%
    03:00 +2°C° 0 mm 1 m/s 750 mmHg 79%
    04:00 +1°C° 0 mm 1 m/s 750 mmHg 80%
    05:00 +1°C° 0 mm 2 m/s 750 mmHg 76%
    06:00 +2°C° 0 mm 2 m/s 749 mmHg 72%
    07:00 +3°C° 0 mm 2 m/s 749 mmHg 67%
    08:00 +4°C° 0 mm 4 m/s 749 mmHg 63%
    09:00 +6°C° 0 mm 5 m/s 748 mmHg 58%
    10:00 +7°C° 0 mm 6 m/s 748 mmHg 53%
    11:00 +9°C° 0 mm 7 m/s 747 mmHg 50%
    12:00 +10°C° 0 mm 7 m/s 746 mmHg 46%
    13:00 +11°C° 0 mm 8 m/s 746 mmHg 43%
    14:00 +12°C° 0 mm 8 m/s 745 mmHg 41%
    15:00 +12°C° 0 mm 8 m/s 744 mmHg 40%
    16:00 +14°C° 0 mm 7 m/s 744 mmHg 38%
    17:00 +13°C° 0 mm 6 m/s 743 mmHg 43%
    18:00 +12°C° 0 mm 5 m/s 743 mmHg 47%
    19:00 +11°C° 0 mm 4 m/s 743 mmHg 52%
    20:00 +10°C° 0 mm 4 m/s 742 mmHg 55%
    21:00 +8°C° 0 mm 4 m/s 742 mmHg 58%
    22:00 +7°C° 0 mm 4 m/s 742 mmHg 61%
    23:00 +7°C° 0 mm 5 m/s 741 mmHg 62%

    Depois de amanhã, 28 Abril, Domingo

    Tempo Temperatura Precipitação Vento Pressão Humidade
    00:00 +7°C° 0 mm 5 m/s 741 mmHg 62%
    01:00 +7°C° 0 mm 5 m/s 740 mmHg 63%
    02:00 +7°C° 0.2 mm 5 m/s 740 mmHg 64%
    03:00 +7°C° 0.2 mm 5 m/s 739 mmHg 66%
    04:00 +7°C° 0.2 mm 5 m/s 739 mmHg 67%
    05:00 +7°C° 0.3 mm 5 m/s 738 mmHg 72%
    06:00 +7°C° 0.3 mm 4 m/s 738 mmHg 77%
    07:00 +6°C° 0.3 mm 4 m/s 738 mmHg 83%
    08:00 +3°C° 1.5 mm 5 m/s 738 mmHg 85%
    09:00 +2°C° 1.5 mm 5 m/s 738 mmHg 88%
    10:00 -1°C° 1.5 mm 6 m/s 738 mmHg 91%
    11:00 -1°C° 0.7 mm 6 m/s 739 mmHg 90%
    12:00 +1°C° 0.7 mm 6 m/s 739 mmHg 89%
    13:00 +1°C° 0.7 mm 5 m/s 740 mmHg 87%
    14:00 +1°C° 0.1 mm 6 m/s 741 mmHg 85%
    15:00 +1°C° 0.1 mm 6 m/s 741 mmHg 83%
    16:00 +1°C° 0.1 mm 6 m/s 742 mmHg 80%
    17:00 +1°C° 0 mm 5 m/s 742 mmHg 80%
    18:00 +1°C° 0 mm 4 m/s 743 mmHg 80%
    19:00 +1°C° 0 mm 3 m/s 743 mmHg 81%
    20:00 0°C° 0 mm 3 m/s 744 mmHg 83%
    21:00 0°C° 0 mm 3 m/s 744 mmHg 85%
    22:00 -1°C° 0 mm 3 m/s 745 mmHg 88%
    23:00 -2°C° 0 mm 3 m/s 745 mmHg 89%

    29 Abril, Segunda-feira

    Tempo Temperatura Precipitação Vento Pressão Humidade
    00:00 -2°C° 0 mm 3 m/s 745 mmHg 89%
    01:00 -4°C° 0 mm 3 m/s 746 mmHg 90%
    02:00 -4°C° 0 mm 3 m/s 746 mmHg 90%
    03:00 -5°C° 0 mm 3 m/s 747 mmHg 90%
    04:00 -5°C° 0 mm 3 m/s 747 mmHg 90%
    05:00 -4°C° 0 mm 3 m/s 747 mmHg 85%
    06:00 -4°C° 0 mm 4 m/s 748 mmHg 80%
    07:00 -3°C° 0 mm 4 m/s 748 mmHg 75%
    08:00 -2°C° 0 mm 4 m/s 748 mmHg 68%
    09:00 -1°C° 0 mm 4 m/s 749 mmHg 61%
    10:00 +1°C° 0 mm 4 m/s 749 mmHg 54%
    11:00 +1°C° 0.1 mm 4 m/s 749 mmHg 51%
    12:00 +3°C° 0.1 mm 4 m/s 749 mmHg 48%
    13:00 +3°C° 0.1 mm 4 m/s 749 mmHg 45%
    14:00 +3°C° 0.1 mm 4 m/s 749 mmHg 46%
    15:00 +3°C° 0.1 mm 3 m/s 749 mmHg 47%
    16:00 +3°C° 0.1 mm 3 m/s 749 mmHg 48%
    17:00 +2°C° 0.2 mm 3 m/s 749 mmHg 55%
    18:00 +1°C° 0.2 mm 3 m/s 749 mmHg 61%
    19:00 +1°C° 0.2 mm 3 m/s 749 mmHg 68%
    20:00 0°C° 0 mm 3 m/s 750 mmHg 73%
    21:00 -1°C° 0 mm 2 m/s 750 mmHg 79%
    22:00 -3°C° 0 mm 2 m/s 750 mmHg 85%
    23:00 -3°C° 0 mm 2 m/s 750 mmHg 86%

    30 Abril, Terça-feira

    Tempo Temperatura Precipitação Vento Pressão Humidade
    00:00 -4°C° 0 mm 2 m/s 750 mmHg 87%
    01:00 -4°C° 0 mm 2 m/s 750 mmHg 88%
    02:00 -4°C° 0 mm 2 m/s 750 mmHg 87%
    03:00 -4°C° 0 mm 2 m/s 750 mmHg 86%
    04:00 -5°C° 0 mm 2 m/s 750 mmHg 85%
    05:00 -5°C° 0 mm 3 m/s 750 mmHg 79%
    06:00 -4°C° 0 mm 3 m/s 750 mmHg 73%
    07:00 -2°C° 0 mm 3 m/s 750 mmHg 68%
    08:00 -1°C° 0 mm 3 m/s 750 mmHg 62%
    09:00 -1°C° 0 mm 4 m/s 750 mmHg 56%
    10:00 0°C° 0 mm 4 m/s 750 mmHg 50%
    11:00 +1°C° 0 mm 4 m/s 750 mmHg 50%
    12:00 +1°C° 0 mm 4 m/s 750 mmHg 49%
    13:00 +1°C° 0 mm 4 m/s 749 mmHg 49%
    14:00 +3°C° 0 mm 4 m/s 749 mmHg 48%
    15:00 +2°C° 0 mm 5 m/s 749 mmHg 48%
    16:00 +2°C° 0 mm 5 m/s 749 mmHg 47%
    17:00 +3°C° 0 mm 4 m/s 749 mmHg 51%
    18:00 +2°C° 0 mm 3 m/s 749 mmHg 55%
    19:00 +1°C° 0 mm 3 m/s 749 mmHg 59%
    20:00 +1°C° 0 mm 2 m/s 749 mmHg 63%
    21:00 -1°C° 0 mm 2 m/s 749 mmHg 67%
    22:00 -2°C° 0 mm 2 m/s 749 mmHg 71%
    23:00 -2°C° 0 mm 2 m/s 749 mmHg 71%

    1 Maio, Quarta-feira

    Tempo Temperatura Precipitação Vento Pressão Humidade
    00:00 -2°C° 0 mm 2 m/s 749 mmHg 72%
    01:00 -2°C° 0 mm 2 m/s 749 mmHg 72%
    02:00 -2°C° 0.1 mm 3 m/s 749 mmHg 71%
    03:00 -1°C° 0.1 mm 3 m/s 749 mmHg 70%
    04:00 -1°C° 0.1 mm 3 m/s 749 mmHg 69%
    05:00 0°C° 0 mm 3 m/s 749 mmHg 67%
    06:00 0°C° 0 mm 4 m/s 749 mmHg 65%
    07:00 0°C° 0 mm 5 m/s 749 mmHg 63%
    08:00 +1°C° 0.1 mm 5 m/s 749 mmHg 61%
    09:00 +3°C° 0.1 mm 6 m/s 749 mmHg 59%
    10:00 +4°C° 0.1 mm 6 m/s 748 mmHg 58%
    11:00 +5°C° 0.2 mm 6 m/s 748 mmHg 57%
    12:00 +5°C° 0.2 mm 6 m/s 748 mmHg 56%
    13:00 +7°C° 0.2 mm 6 m/s 748 mmHg 55%
    14:00 +7°C° 0.1 mm 6 m/s 748 mmHg 55%
    15:00 +7°C° 0.1 mm 6 m/s 748 mmHg 55%
    16:00 +7°C° 0.1 mm 6 m/s 748 mmHg 54%
    17:00 +7°C° 0.1 mm 5 m/s 748 mmHg 58%
    18:00 +6°C° 0.1 mm 4 m/s 748 mmHg 61%
    19:00 +5°C° 0.1 mm 3 m/s 749 mmHg 64%
    20:00 +4°C° 0 mm 3 m/s 749 mmHg 66%
    21:00 +3°C° 0 mm 3 m/s 749 mmHg 67%
    22:00 +2°C° 0 mm 3 m/s 749 mmHg 69%
    23:00 +2°C° 0 mm 3 m/s 750 mmHg 69%
    Mostrar mais